User: anonymous   Login
Location: B?jaj?g
(11.7167°N, 92.6667°E)
Time: 00:45:12
(UTC+00:00)
Language:

PAYLOAD A - Orbit

View from above orbital plane
View from above orbital plane
View from above satellite
View from above satellite

Ground track
Ground track

The orbit data is extracted from the following two-line orbital elements,

1 27946U 03043B   20326.89593816 -.00000166  00000-0  10489-2 0  9998
2 27946   8.1435   4.5641 7176982  60.4844 351.8145  2.23492631140102
Epoch (UTC): 21 November 2020 21:30:09
Eccentricity: 0.7176982
inclination: 8.1435°
perigee height: 598 km
apogee height: 36068 km
right ascension of ascending node: 4.5641°
argument of perigee: 60.4844°
revolutions per day: 2.23492631
mean anomaly at epoch: 351.8145°
orbit number at epoch: 14010

The dashed part of the orbit path shows where the satellite is in the earth's shadow,  

DLR